| time (UTC) | temp F | wind direction | speed MPH | gust MPH | rain 1hr in | rain 24hr in | rain mn in | humidity % | barometer mb |
| 20260504081518 | 49 | 0.0 | 1.0 | 0.00 | 0.00 | 0.00 | 52 | 1016.1 | |
| 20260504080525 | 49 | 0.0 | 0.0 | 0.00 | 0.00 | 0.00 | 52 | 1016.0 | |
| 20260504050516 | 46 | 192 | 0.0 | 1.0 | 0.00 | 0.00 | 0.00 | 49 | 1016.2 |
| 20260504045540 | 45 | 189 | 1.0 | 2.0 | 0.00 | 0.00 | 0.00 | 48 | 1016.2 |
| 20260504044525 | 45 | 202 | 0.0 | 2.0 | 0.00 | 0.00 | 0.00 | 48 | 1016.3 |
| 20260504043520 | 45 | 212 | 0.0 | 1.0 | 0.00 | 0.00 | 0.00 | 47 | 1016.3 |
| 20260504042525 | 45 | 199 | 1.0 | 1.0 | 0.00 | 0.00 | 0.00 | 47 | 1016.2 |
| 20260504041524 | 45 | 206 | 1.0 | 2.0 | 0.00 | 0.00 | 0.00 | 46 | 1016.3 |
| 20260504040517 | 45 | 197 | 1.0 | 2.0 | 0.00 | 0.00 | 0.00 | 45 | 1016.3 |
| 20260504035522 | 45 | 214 | 1.0 | 1.0 | 0.00 | 0.00 | 0.00 | 44 | 1016.2 |
| 20260504034537 | 45 | 219 | 1.0 | 2.0 | 0.00 | 0.00 | 0.00 | 44 | 1016.1 |
| 20260504033521 | 45 | 195 | 1.0 | 2.0 | 0.00 | 0.00 | 0.00 | 43 | 1016.0 |
| 20260504032529 | 45 | 203 | 1.0 | 2.0 | 0.00 | 0.00 | 0.00 | 42 | 1015.9 |
| 20260504031518 | 45 | 242 | 1.0 | 2.0 | 0.00 | 0.00 | 0.00 | 41 | 1015.9 |
| 20260504030518 | 45 | 243 | 1.0 | 2.0 | 0.00 | 0.00 | 0.00 | 40 | 1015.7 |
| 20260504025544 | 45 | 238 | 1.0 | 2.0 | 0.00 | 0.00 | 0.00 | 40 | 1015.7 |
| 20260504024519 | 45 | 245 | 0.0 | 1.0 | 0.00 | 0.00 | 0.00 | 39 | 1015.8 |
| 20260504023524 | 45 | 0.0 | 0.0 | 0.00 | 0.00 | 0.00 | 39 | 1015.6 | |
| 20260504022530 | 46 | 0.0 | 0.0 | 0.00 | 0.00 | 0.00 | 38 | 1015.6 | |
| 20260504021515 | 46 | 0.0 | 0.0 | 0.00 | 0.00 | 0.00 | 36 | 1015.6 | |
| 20260504020543 | 47 | 0.0 | 0.0 | 0.00 | 0.00 | 0.00 | 34 | 1015.6 | |
| 20260504015521 | 47 | 0.0 | 0.0 | 0.00 | 0.00 | 0.00 | 34 | 1015.6 | |
| 20260504014523 | 48 | 0.0 | 0.0 | 0.00 | 0.00 | 0.00 | 33 | 1015.4 | |
| 20260504013517 | 48 | 0.0 | 0.0 | 0.00 | 0.00 | 0.00 | 32 | 1015.4 | |
| 20260504012519 | 49 | 220 | 0.0 | 0.0 | 0.00 | 0.00 | 0.00 | 31 | 1015.4 |
| 20260504011519 | 49 | 225 | 0.0 | 1.0 | 0.00 | 0.00 | 0.00 | 31 | 1015.3 |
| 20260504010525 | 50 | 0.0 | 0.0 | 0.00 | 0.00 | 0.00 | 30 | 1015.2 | |
| 20260504005520 | 51 | 0.0 | 0.0 | 0.00 | 0.00 | 0.00 | 31 | 1015.1 | |
| 20260504004525 | 52 | 0.0 | 0.0 | 0.00 | 0.00 | 0.00 | 30 | 1015.1 | |
| 20260504003604 | 53 | 248 | 0.0 | 0.0 | 0.00 | 0.00 | 0.00 | 29 | 1015.0 |
| 20260504002516 | 54 | 248 | 0.0 | 1.0 | 0.00 | 0.00 | 0.00 | 28 | 1014.9 |
| 20260504001522 | 55 | 0.0 | 0.0 | 0.00 | 0.00 | 0.00 | 27 | 1014.8 | |
| 20260504000517 | 56 | 251 | 0.0 | 0.0 | 0.00 | 0.00 | 0.00 | 25 | 1014.7 |
| 20260503235541 | 57 | 265 | 0.0 | 1.0 | 0.00 | 0.00 | 0.00 | 25 | 1014.7 |
| 20260503234529 | 58 | 242 | 0.0 | 2.0 | 0.00 | 0.00 | 0.00 | 24 | 1014.5 |
| 20260503233517 | 59 | 223 | 0.0 | 0.0 | 0.00 | 0.00 | 0.00 | 23 | 1014.4 |
| 20260503232516 | 60 | 256 | 0.0 | 3.0 | 0.00 | 0.00 | 0.00 | 22 | 1014.4 |
| 20260503231523 | 60 | 311 | 1.0 | 1.0 | 0.00 | 0.00 | 0.00 | 22 | 1014.3 |
| 20260503230516 | 61 | 279 | 1.0 | 3.0 | 0.00 | 0.00 | 0.00 | 21 | 1014.3 |
| 20260503225524 | 62 | 38 | 1.0 | 4.0 | 0.00 | 0.00 | 0.00 | 21 | 1014.3 |
| 20260503224532 | 63 | 268 | 1.0 | 3.0 | 0.00 | 0.00 | 0.00 | 21 | 1014.4 |
| 20260503223515 | 64 | 335 | 1.0 | 4.0 | 0.00 | 0.00 | 0.00 | 20 | 1014.4 |
| 20260503222543 | 65 | 238 | 1.0 | 6.0 | 0.00 | 0.00 | 0.00 | 19 | 1014.3 |
| 20260503221517 | 67 | 335 | 1.0 | 7.0 | 0.00 | 0.00 | 0.00 | 18 | 1014.5 |
| 20260503220516 | 70 | 15 | 2.0 | 3.0 | 0.00 | 0.00 | 0.00 | 16 | 1014.5 |
| 20260503215524 | 78 | 275 | 1.0 | 5.0 | 0.00 | 0.00 | 0.00 | 16 | 1014.6 |
| 20260503214517 | 82 | 48 | 1.0 | 4.0 | 0.00 | 0.00 | 0.00 | 16 | 1014.4 |
| 20260503213519 | 82 | 262 | 2.0 | 7.0 | 0.00 | 0.00 | 0.00 | 17 | 1014.4 |
| 20260503212517 | 82 | 339 | 3.0 | 6.0 | 0.00 | 0.00 | 0.00 | 15 | 1014.5 |
| 20260503211519 | 82 | 1 | 2.0 | 7.0 | 0.00 | 0.00 | 0.00 | 17 | 1014.5 |
| 20260503210516 | 82 | 2 | 2.0 | 6.0 | 0.00 | 0.00 | 0.00 | 17 | 1014.4 |
| 20260503205525 | 82 | 234 | 2.0 | 5.0 | 0.00 | 0.00 | 0.00 | 19 | 1014.5 |
| 20260503204516 | 81 | 324 | 3.0 | 17.0 | 0.00 | 0.00 | 0.00 | 18 | 1014.6 |
| 20260503203523 | 80 | 184 | 2.0 | 5.0 | 0.00 | 0.00 | 0.00 | 20 | 1014.7 |
| 20260503202536 | 78 | 9 | 3.0 | 6.0 | 0.00 | 0.00 | 0.00 | 20 | 1014.8 |
| 20260503201524 | 78 | 332 | 3.0 | 6.0 | 0.00 | 0.00 | 0.00 | 20 | 1014.9 |
| 20260503200516 | 77 | 352 | 4.0 | 5.0 | 0.00 | 0.00 | 0.00 | 20 | 1015.0 |
| 20260503195519 | 76 | 219 | 3.0 | 8.0 | 0.00 | 0.00 | 0.00 | 21 | 1015.1 |
| 20260503194516 | 75 | 10 | 2.0 | 8.0 | 0.00 | 0.00 | 0.00 | 22 | 1015.2 |
| 20260503193525 | 72 | 339 | 2.0 | 5.0 | 0.00 | 0.00 | 0.00 | 22 | 1015.3 |
| 20260503192517 | 71 | 312 | 2.0 | 7.0 | 0.00 | 0.00 | 0.00 | 21 | 1015.4 |
| 20260503191521 | 72 | 311 | 2.0 | 5.0 | 0.00 | 0.00 | 0.00 | 21 | 1015.5 |
| 20260503190516 | 74 | 291 | 2.0 | 6.0 | 0.00 | 0.00 | 0.00 | 21 | 1015.6 |
| 20260503185536 | 77 | 331 | 3.0 | 7.0 | 0.00 | 0.00 | 0.00 | 20 | 1015.7 |
| 20260503184516 | 80 | 320 | 3.0 | 9.0 | 0.00 | 0.00 | 0.00 | 19 | 1015.9 |
| 20260503183518 | 80 | 265 | 3.0 | 10.0 | 0.00 | 0.00 | 0.00 | 21 | 1016.1 |
| 20260503182516 | 79 | 303 | 2.0 | 6.0 | 0.00 | 0.00 | 0.00 | 20 | 1016.1 |
| 20260503181525 | 78 | 29 | 3.0 | 4.0 | 0.00 | 0.00 | 0.00 | 21 | 1016.0 |
| 20260503180517 | 78 | 309 | 3.0 | 6.0 | 0.00 | 0.00 | 0.00 | 20 | 1016.2 |
| 20260503175519 | 76 | 303 | 3.0 | 7.0 | 0.00 | 0.00 | 0.00 | 21 | 1016.3 |
| 20260503174517 | 76 | 304 | 3.0 | 8.0 | 0.00 | 0.00 | 0.00 | 22 | 1016.3 |
| 20260503173519 | 76 | 33 | 3.0 | 7.0 | 0.00 | 0.00 | 0.00 | 21 | 1016.4 |
| 20260503172516 | 76 | 55 | 3.0 | 6.0 | 0.00 | 0.00 | 0.00 | 23 | 1016.5 |
| 20260503171545 | 74 | 349 | 3.0 | 10.0 | 0.00 | 0.00 | 0.00 | 23 | 1016.6 |
| 20260503170516 | 74 | 32 | 3.0 | 6.0 | 0.00 | 0.00 | 0.00 | 23 | 1016.6 |
| 20260503150518 | 65 | 43 | 2.0 | 7.0 | 0.00 | 0.00 | 0.00 | 33 | 1017.1 |
| 20260503130528 | 46 | 37 | 2.0 | 5.0 | 0.00 | 0.00 | 0.00 | 55 | 1017.2 |
| 20260503110518 | 41 | 285 | 2.0 | 6.0 | 0.00 | 0.00 | 0.00 | 61 | 1016.3 |